Location: Newton_East
(35.6670°N, 81.2000°W)
Time: 00:36:07
(UTC-05:00)

ISS - Visible Passes

Search period start: 21 February 2018 00:00
Search period end: 03 March 2018 00:00
Orbit: 402 x 407 km, 51.6° (Epoch: 21 February)

Date Brightness Start Highest point End Pass type
(mag) Time Alt. Az. Time Alt. Az. Time Alt. Az.
25 Feb -1.3 05:48:43 10° S 05:51:16 22° SE 05:53:51 10° ENE visible
26 Feb -0.6 04:58:34 10° SE 04:59:12 10° SE 04:59:49 10° ESE visible
26 Feb -3.7 06:32:02 10° WSW 06:35:16 60° NW 06:38:31 10° NE visible
27 Feb -3.4 05:41:10 23° SSW 05:42:59 62° SE 05:46:12 10° NE visible
28 Feb -1.6 04:51:36 24° ESE 04:51:36 24° ESE 04:53:37 10° ENE visible
28 Feb -2.5 06:24:25 10° W 06:27:12 25° NNW 06:30:00 10° NNE visible
01 Mar -3.5 05:34:31 44° NW 05:34:47 46° NW 05:37:57 10° NE visible
02 Mar -1.2 04:44:35 20° NE 04:44:35 20° NE 04:45:42 10° NE visible
02 Mar -1.6 06:17:31 10° WNW 06:19:16 14° NNW 06:21:01 10° N visible
